TimeEST,TemperatureF,Dew PointF,Humidity,Sea Level PressureIn,VisibilityMPH,Wind Direction,Wind SpeedMPH,Gust SpeedMPH,PrecipitationIn,Events,Conditions,WindDirDegrees,DateUTC
12:51 AM,26.1,21.9,84,29.79,10.0,Calm,Calm,-,N/A,,Overcast,0,2013-02-14 05:51:00
2:51 AM,27.0,21.9,81,29.82,10.0,Calm,Calm,-,N/A,,Overcast,0,2013-02-14 07:51:00
3:51 AM,26.6,21.2,80,29.78,10.0,Calm,Calm,-,N/A,,Overcast,0,2013-02-14 08:51:00
4:04 AM,26.6,21.2,80,29.78,10.0,Calm,Calm,-,N/A,,Overcast,0,2013-02-14 09:04:00
4:51 AM,26.1,23.0,88,29.84,10.0,Calm,Calm,-,N/A,,Overcast,0,2013-02-14 09:51:00
5:51 AM,26.1,21.9,84,29.86,10.0,Calm,Calm,-,N/A,,Overcast,0,2013-02-14 10:51:00
6:51 AM,26.6,21.2,80,29.83,10.0,Calm,Calm,-,N/A,,Overcast,0,2013-02-14 11:51:00
7:51 AM,27.0,21.9,81,29.90,10.0,Calm,Calm,-,N/A,,Overcast,0,2013-02-14 12:51:00
8:51 AM,28.0,21.9,78,29.92,10.0,North,3.5,-,N/A,,Overcast,350,2013-02-14 13:51:00
9:51 AM,28.9,19.9,69,29.94,10.0,NNW,5.8,-,N/A,,Overcast,330,2013-02-14 14:51:00
10:51 AM,28.9,18.0,64,29.95,10.0,NNW,6.9,-,N/A,,Overcast,330,2013-02-14 15:51:00
11:51 AM,30.2,17.6,60,29.90,1.2,North,6.9,-,N/A,,Haze,350,2013-02-14 16:51:00
12:04 PM,30.2,17.6,60,29.90,10.0,North,5.8,-,N/A,,Overcast,360,2013-02-14 17:04:00
12:26 PM,30.2,17.6,60,29.90,2.0,NNW,5.8,-,N/A,,Haze,340,2013-02-14 17:26:00
12:36 PM,30.2,17.6,60,29.90,10.0,NNW,4.6,-,N/A,,Overcast,330,2013-02-14 17:36:00
12:51 PM,30.0,17.1,59,29.95,10.0,WNW,4.6,-,N/A,,Overcast,300,2013-02-14 17:51:00
1:51 PM,30.9,17.1,57,29.94,10.0,Variable,3.5,-,N/A,,Overcast,0,2013-02-14 18:51:00
2:51 PM,32.0,18.0,56,29.94,10.0,Calm,Calm,-,N/A,,Overcast,0,2013-02-14 19:51:00
3:51 PM,32.0,17.1,54,29.95,10.0,ENE,3.5,-,N/A,,Overcast,70,2013-02-14 20:51:00
4:51 PM,30.9,16.0,54,29.96,10.0,Calm,Calm,-,N/A,,Scattered Clouds,0,2013-02-14 21:51:00
5:51 PM,25.0,17.1,72,29.98,10.0,Calm,Calm,-,N/A,,Clear,0,2013-02-14 22:51:00
6:51 PM,23.0,16.0,74,30.00,10.0,South,3.5,-,N/A,,Clear,190,2013-02-14 23:51:00
7:51 PM,23.0,16.0,74,30.00,10.0,Calm,Calm,-,N/A,,Mostly Cloudy,0,2013-02-15 00:51:00
8:51 PM,23.0,17.1,78,29.99,10.0,Calm,Calm,-,N/A,,Overcast,0,2013-02-15 01:51:00
9:51 PM,23.0,18.0,81,29.99,10.0,Calm,Calm,-,N/A,,Overcast,0,2013-02-15 02:51:00
10:51 PM,24.1,18.0,77,29.97,10.0,Calm,Calm,-,N/A,,Overcast,0,2013-02-15 03:51:00
11:51 PM,24.1,18.0,77,29.98,9.0,Calm,Calm,-,N/A,,Overcast,0,2013-02-15 04:51:00